EW3163 Weather Reports


time (UTC)temp
C
wind
direction
speed
KPH
gust
KPH
rain 1hr
cm
rain 24hr
cm
rain mn
cm
humidity
%
barometer
mb
20260508121559 11 153 0.0 8.0 0.00 0.00 0.00 78 1017.1
20260508120054 13 145 0.0 9.7 0.00 0.00 0.00 69 1016.5
20260508114601 15 181 0.0 8.0 0.00 0.00 0.00 67 1016.4
20260508113122 16 158 0.0 0.0 0.00 0.00 0.00 65 1016.2
20260508111551 17 129 0.0 0.0 0.00 0.00 0.00 62 1016.2
20260508110051 17 129 0.0 0.0 0.00 0.00 0.00 59 1016.2
20260508104556 18 148 0.0 0.0 0.00 0.00 0.00 58 1016.2
20260508103057 18 142 0.0 0.0 0.00 0.00 0.00 59 1016.2
20260508101550 18 137 0.0 0.0 0.00 0.00 0.00 59 1016.2
20260508100044 17 186 0.0 0.0 0.00 0.00 0.00 62 1016.2
20260508094540 16 187 0.0 0.0 0.00 0.00 0.00 62 1016.2
20260508093036 16 160 0.0 0.0 0.00 0.00 0.00 66 1016.1
20260508091534 15 145 0.0 0.0 0.00 0.00 0.00 66 1016.1
20260508090041 15 142 0.0 0.0 0.00 0.00 0.00 67 1016.1
20260508084527 14 134 0.0 4.8 0.00 0.00 0.00 71 1016.1
20260508083022 13 205 0.0 1.6 0.00 0.00 0.00 73 1016.1
20260508081518 12 169 0.0 0.0 0.00 0.00 0.00 76 1016.1
20260508080014 12 143 0.0 0.0 0.00 0.00 0.00 79 1016.1
20260508074516 11 146 0.0 1.6 0.00 0.00 0.00 80 1015.9
20260508073007 11 195 0.0 0.0 0.00 0.00 0.00 84 1016.0
20260508071503 10 162 0.0 1.6 0.00 0.00 0.00 88 1015.9
20260508064607 9 191 0.0 0.0 0.00 0.00 0.00 92 1015.6
20260508063057 9 184 0.0 1.6 0.00 0.00 0.00 92 1015.5
20260508061601 8 148 0.0 0.0 0.00 0.00 0.00 93 1015.4
20260508060058 8 205 0.0 0.0 0.00 0.00 0.00 94 1015.3
20260508054620 7 205 0.0 0.0 0.00 0.00 0.00 94 1015.2
20260508053052 7 188 0.0 0.0 0.00 0.00 0.00 93 1015.1
20260508051552 7 212 0.0 0.0 0.00 0.00 0.00 93 1015.0
20260508050052 7 174 0.0 0.0 0.00 0.00 0.00 93 1014.8
20260508044548 7 148 0.0 0.0 0.00 0.00 0.00 93 1014.8
20260508043051 7 172 0.0 0.0 0.00 0.00 0.00 93 1014.8
20260508041547 7 163 0.0 0.0 0.00 0.00 0.00 93 1014.7
20260508040054 7 186 0.0 0.0 0.00 0.00 0.00 93 1014.6
20260508034548 7 188 0.0 0.0 0.00 0.00 0.00 93 1014.5
20260508033045 7 190 0.0 0.0 0.00 0.00 0.00 93 1014.4
20260508031552 7 184 0.0 0.0 0.00 0.00 0.00 93 1014.6
20260508030046 7 170 0.0 0.0 0.00 0.00 0.00 92 1014.6
20260508024542 7 155 0.0 0.0 0.00 0.00 0.00 91 1014.5
20260508023039 7 149 0.0 0.0 0.00 0.00 0.00 91 1014.5
20260508021541 8 154 0.0 0.0 0.00 0.00 0.00 90 1014.5
20260508020036 8 145 0.0 0.0 0.00 0.00 0.00 89 1014.5
20260508014534 8 146 0.0 0.0 0.00 0.00 0.00 89 1014.5
20260508013031 8 158 0.0 0.0 0.00 0.00 0.00 88 1014.5
20260508011538 9 175 0.0 0.0 0.00 0.00 0.00 88 1014.6
20260508010032 9 179 0.0 0.0 0.00 0.00 0.00 87 1014.6
20260508004536 9 185 0.0 0.0 0.00 0.00 0.00 86 1014.7
20260508003025 10 187 0.0 0.0 0.00 0.00 0.00 85 1014.7
20260508001527 10 123 0.0 0.0 0.00 0.00 0.00 84 1014.7
20260508000020 10 188 0.0 0.0 0.00 0.00 0.00 83 1014.7
20260507234527 10 191 0.0 1.6 0.00 0.00 0.00 82 1014.6
20260507233024 10 154 0.0 0.0 0.00 0.00 0.00 82 1014.6
20260507231514 10 136 0.0 0.0 0.00 0.00 0.00 81 1014.5
20260507230013 10 190 0.0 1.6 0.00 0.00 0.00 81 1014.5
20260507224518 10 142 0.0 0.0 0.00 0.00 0.00 81 1014.5
20260507223014 10 139 0.0 4.8 0.00 0.00 0.00 80 1014.4
20260507221511 10 187 0.0 0.0 0.00 0.00 0.00 81 1014.5
20260507220010 10 149 0.0 1.6 0.00 0.00 0.00 81 1014.5
20260507214518 10 137 0.0 0.0 0.00 0.00 0.00 82 1014.6
20260507213008 10 137 0.0 0.0 0.00 0.00 0.00 81 1014.5
20260507211508 10 184 0.0 1.6 0.00 0.00 0.00 79 1014.5
20260507210008 10 251 0.0 1.6 0.00 0.00 0.00 78 1014.4
20260507204507 10 179 0.0 1.6 0.00 0.00 0.00 78 1014.3
20260507203007 10 100 0.0 0.0 0.00 0.00 0.00 78 1014.3
20260507201513 10 192 0.0 0.0 0.00 0.00 0.00 78 1014.2
20260507200006 11 150 0.0 0.0 0.00 0.00 0.00 78 1014.2
20260507194505 11 189 0.0 0.0 0.00 0.00 0.00 78 1014.0
20260507193005 11 144 0.0 0.0 0.00 0.00 0.00 77 1014.0
20260507191505 11 194 0.0 0.0 0.00 0.00 0.00 77 1013.9
20260507190003 11 194 0.0 0.0 0.00 0.00 0.00 77 1013.8
20260507184600 11 133 0.0 0.0 0.00 0.00 0.00 76 1013.8
20260507183059 11 142 0.0 0.0 0.00 0.00 0.00 76 1013.9
20260507181558 12 128 0.0 0.0 0.00 0.00 0.00 76 1013.9
20260507180106 12 126 0.0 0.0 0.00 0.00 0.00 74 1013.8
20260507174630 12 141 0.0 1.6 0.00 0.00 0.00 74 1013.9
20260507173057 12 145 0.0 3.2 0.00 0.00 0.00 75 1013.8
20260507171609 12 135 0.0 0.0 0.00 0.00 0.00 75 1013.9
20260507170054 12 155 0.0 1.6 0.00 0.00 0.00 75 1014.1
20260507164555 12 124 0.0 1.6 0.00 0.00 0.00 75 1014.1
20260507163053 12 151 0.0 0.0 0.00 0.00 0.00 75 1014.2
20260507161553 11 155 0.0 0.0 0.00 0.00 0.00 76 1014.3
20260507160111 11 203 0.0 1.6 0.00 0.00 0.00 75 1014.3
20260507154549 11 139 0.0 1.6 0.00 0.00 0.00 75 1014.2
20260507153048 11 122 0.0 1.6 0.00 0.00 0.00 76 1014.4
20260507151553 11 166 0.0 1.6 0.00 0.00 0.00 74 1014.4
20260507150047 12 155 0.0 1.6 0.00 0.00 0.00 73 1014.5
20260507144546 12 132 0.0 0.0 0.00 0.00 0.00 73 1014.5
20260507143044 12 143 0.0 3.2 0.00 0.00 0.00 71 1014.5
20260507141543 12 169 0.0 1.6 0.00 0.00 0.00 71 1014.6
20260507140047 13 190 0.0 8.0 0.00 0.00 0.00 71 1014.6
20260507134543 13 157 0.0 6.4 0.00 0.00 0.00 73 1014.6
20260507133043 13 143 3.2 9.7 0.00 0.00 0.00 72 1014.4
20260507131608 13 136 0.0 9.7 0.00 0.00 0.00 71 1014.6
20260507130042 13 144 1.6 9.7 0.00 0.00 0.00 72 1014.6
20260507124549 13 141 0.0 9.7 0.00 0.00 0.00 70 1014.5
20260507123043 13 125 0.0 4.8 0.00 0.00 0.00 68 1014.5